sat.trackr.live / text

‹ back to catalog

STARLINK-1365

NORAD 45590 · 2020-025BM

PAYLOAD ACTIVE UNKNOWN

§ Identity

Operator
Country
US
Launch date
2020-04-22
Launch site
AFETR
Launch vehicle
Mass (kg)
RCS (m²)

Purposes: comms

External: N2YO · Heavens-Above · Gunter

§ Orbital elements

Epoch: 2026-09-20T04:18:21.398976Z

Period
91.40 min
Inclination
53.0381°
Eccentricity
0.0004200
Mean motion
15.75552344 rev/d
Perigee alt
340.2 km
Apogee alt
345.9 km
Semi-major
6,721.2 km
B*
3.8875e-4
RAAN
223.9377°
Arg perigee
63.7937°
Mean anomaly
296.3513°
Rev number
35,567

§ Raw data

STARLINK-13651 45590U 20025BM  26263.17941434  .00060231  00000+0  38875-3 0  99992 45590  53.0381 223.9377 0004200  63.7937 296.3513 15.75552344355675

JSON: /api/v1/satellites/45590 · /tle

For live sub-satellite position, see the globe view (requires WebGL).

§ Visibility from observer

Set your observer location to see the next 7 days of passes ≥ 10°. The values pass through the URL so the page stays shareable.

No JS? Fill the form by hand. The geolocation button needs JavaScript.